Augusta, GA

3:23 AM EST on February 26, 2017 (GMT -0500)
Augusta Regional At Bush

Weather History for KAGS - November, 2011

Change the Weather History Date:

Wednesday, November 16, 2011

  Actual Average Record
Temperature  
Mean Temperature 70 °F 55 °F  
Max Temperature 82 °F 69 °F 88 °F (1958)
Min Temperature 58 °F 41 °F 22 °F (1969)
Degree Days  
Heating Degree Days 0 10  
Month to date heating degree days 144 135  
Since 1 July heating degree days 287 249  
Cooling Degree Days 5 0  
Month to date cooling degree days 7 15  
Year to date cooling degree days 2509 2085  
Growing Degree Days 20 (Base 50)    
Moisture  
Dew Point 64 °F    
Average Humidity 78    
Maximum Humidity 100    
Minimum Humidity 55    
Precipitation  
Precipitation 0.74 in 0.10 in 2.38 in (1920)
Month to date precipitation 0.84 1.42  
Year to date precipitation 27.36 38.78  
Sea Level Pressure  
Sea Level Pressure 29.90 in    
Wind  
Wind Speed 8 mph (SSW)    
Max Wind Speed 37 mph    
Max Gust Speed 58 mph    
Visibility 6 miles    
Events Fog , Rain , Thunderstorm    
T = Trace of Precipitation, MM = Missing Value Source: NWS Daily Summary

Daily Weather History Graph

Daily Weather History Graph

Search for Another Location

Airport or City:

Trip Planner

Search our weather history database for the weather conditions in past years. The results will help you decide how hot, cold, wet, or windy it might be!

Date:

Astronomy

Nov. 16, 2011 Rise Set
Actual Time 6:59 AM EST 5:25 PM EST
Civil Twilight 6:33 AM EST 5:51 PM EST
Nautical Twilight 6:03 AM EST 6:21 PM EST
Astronomical Twilight 5:33 AM EST 6:50 PM EST
Moon 10:34 PM EST (11/16) 11:36 AM EST (11/16)
Length of Visible Light 11h 18m
Length of Day
10h 25m
Waning Gibbous, 70% of the Moon is Illuminated
Nov 16
Waning Gibbous
Nov 18
Last Quarter
Nov 25
New
Dec 2
First Quarter
Dec 10
Full

Hourly Weather History & Observations

Time (EST) Temp. Heat Index Dew Point Humidity Pressure Visibility Wind Dir Wind Speed Gust Speed Precip Events Conditions
12:51 AM 62.6 °F - 60.8 °F 94% 29.96 in 1.8 mi Calm Calm - N/A   Clear
12:53 AM 62.1 °F - 61.0 °F 96% 29.96 in 1.0 mi Calm Calm - N/A   Clear
1:00 AM 60.8 °F - 60.8 °F 100% 29.96 in 0.5 mi Calm Calm - N/A Fog Fog
1:11 AM 60.8 °F - 60.8 °F 100% 29.96 in 0.5 mi Calm Calm - N/A Fog Fog
1:17 AM 59.0 °F - 59.0 °F 100% 29.96 in 1.5 mi Calm Calm - N/A   Partly Cloudy
1:19 AM 59.0 °F - 59.0 °F 100% 29.96 in 3.0 mi Calm Calm - N/A   Partly Cloudy
1:25 AM 60.8 °F - 60.8 °F 100% 29.96 in 1.5 mi Calm Calm - N/A   Partly Cloudy
1:32 AM 60.8 °F - 60.8 °F 100% 29.95 in 0.2 mi Calm Calm - N/A Fog Fog
1:51 AM 60.8 °F - 59.0 °F 94% 29.95 in 0.5 mi SE 3.5 mph - N/A Fog Fog
1:53 AM 59.0 °F - 59.0 °F 100% 29.94 in 0.5 mi SE 3.5 mph - N/A Fog Fog
1:59 AM 60.8 °F - 60.8 °F 100% 29.95 in 0.2 mi Calm Calm - N/A Fog Fog
2:09 AM 62.6 °F - 60.8 °F 94% 29.95 in 1.0 mi Calm Calm - N/A   Mist
2:18 AM 60.8 °F - 60.8 °F 100% 29.95 in 3.0 mi Calm Calm - N/A   Overcast
2:30 AM 60.8 °F - 60.8 °F 100% 29.95 in 1.5 mi Calm Calm - N/A   Overcast
2:32 AM 60.8 °F - 60.8 °F 100% 29.95 in 0.8 mi Calm Calm - N/A   Mist
2:42 AM 59.0 °F - 59.0 °F 100% 29.95 in 0.2 mi Calm Calm - N/A Fog Fog
2:53 AM 57.9 °F - 57.9 °F 100% 29.94 in 0.2 mi Calm Calm - N/A Fog Fog
3:00 AM 59.0 °F - 59.0 °F 100% 29.95 in 0.2 mi Calm Calm - N/A Fog Fog
3:21 AM 59.0 °F - 59.0 °F 100% 29.94 in 0.5 mi SSE 3.5 mph - N/A Fog Fog
3:46 AM 64.4 °F - 62.6 °F 94% 29.93 in 2.0 mi SSE 5.8 mph - N/A   Overcast
3:53 AM 64.9 °F - 64.9 °F 100% 29.93 in 2.5 mi SSE 4.6 mph - N/A   Overcast
4:02 AM 64.4 °F - 64.4 °F 100% 29.92 in 4.0 mi South 6.9 mph - N/A   Overcast
4:39 AM 64.4 °F - 64.4 °F 100% 29.92 in 7.0 mi South 3.5 mph - N/A   Scattered Clouds
4:53 AM 64.0 °F - 64.0 °F 100% 29.92 in 7.0 mi South 3.5 mph - N/A   Mostly Cloudy
5:53 AM 64.9 °F - 64.0 °F 97% 29.91 in 8.0 mi SSE 4.6 mph - N/A   Overcast
7:53 AM 68.0 °F - 66.0 °F 93% 29.93 in 10.0 mi SSW 8.1 mph - N/A   Overcast
8:53 AM 70.0 °F - 66.0 °F 87% 29.94 in 10.0 mi SSW 9.2 mph - N/A   Overcast
9:01 AM 69.8 °F - 66.2 °F 88% 29.95 in 10.0 mi SSW 10.4 mph - N/A   Overcast
9:53 AM 71.1 °F - 66.0 °F 84% 29.94 in 10.0 mi SSW 11.5 mph - N/A   Overcast
10:02 AM 71.6 °F - 66.2 °F 83% 29.94 in 10.0 mi SSW 9.2 mph - N/A   Overcast
10:53 AM 75.2 °F - 66.2 °F 73% 29.92 in 10.0 mi SSW 8.1 mph - N/A   Overcast
11:51 AM 78.8 °F - 66.2 °F 65% 29.90 in 10.0 mi SSW 15.0 mph - N/A   Mostly Cloudy
11:53 AM 78.1 °F - 66.9 °F 68% 29.89 in 10.0 mi SSW 12.7 mph - N/A   Mostly Cloudy
12:17 PM 78.8 °F - 66.2 °F 65% 29.88 in 10.0 mi SSW 12.7 mph 19.6 mph N/A   Overcast
12:53 PM 81.0 °F 83.0 °F 66.0 °F 60% 29.85 in 10.0 mi SSW 17.3 mph 24.2 mph N/A   Mostly Cloudy
1:53 PM 80.1 °F 81.9 °F 64.9 °F 60% 29.83 in 10.0 mi SW 17.3 mph 25.3 mph N/A   Partly Cloudy
2:53 PM 82.0 °F 83.8 °F 64.9 °F 56% 29.80 in 10.0 mi SSW 11.5 mph 19.6 mph N/A   Scattered Clouds
3:53 PM 81.0 °F 82.7 °F 64.9 °F 58% 29.78 in 10.0 mi SSW 13.8 mph 19.6 mph N/A   Partly Cloudy
4:43 PM 78.8 °F - 64.4 °F 61% 29.78 in 10.0 mi South 5.8 mph - N/A   Scattered Clouds
4:53 PM 78.1 °F - 64.9 °F 64% 29.77 in 10.0 mi SSE 6.9 mph - N/A Thunderstorm Scattered Clouds
5:09 PM 71.6 °F - 66.2 °F 83% 29.82 in 0.8 mi West 18.4 mph 57.5 mph 0.05 in Rain , Thunderstorm Heavy Thunderstorms and Rain
5:13 PM 69.8 °F - 66.2 °F 88% 29.80 in 3.0 mi WNW 4.6 mph 57.5 mph 0.27 in Rain , Thunderstorm Heavy Thunderstorms and Rain
5:53 PM 69.1 °F - 66.9 °F 93% 29.83 in 3.0 mi WSW 8.1 mph 24.2 mph 0.55 in Rain , Thunderstorm Thunderstorms and Rain
6:23 PM 69.8 °F - 66.2 °F 88% 29.86 in 6.0 mi South 8.1 mph - 0.04 in Rain Rain
6:50 PM 69.8 °F - 66.2 °F 88% 29.85 in 7.0 mi SSW 9.2 mph - 0.09 in Rain , Thunderstorm Rain
6:53 PM 69.8 °F - 66.2 °F 88% 29.85 in 6.0 mi SSW 9.2 mph - N/A Rain , Thunderstorm Rain
7:05 PM 68.0 °F - 66.2 °F 94% 29.86 in 5.0 mi South 6.9 mph - N/A Rain Rain
7:53 PM 68.0 °F - 66.0 °F 93% 29.85 in 10.0 mi South 5.8 mph - 0.10 in   Scattered Clouds
8:08 PM 68.0 °F - 66.2 °F 94% 29.85 in 10.0 mi SW 3.5 mph - N/A   Partly Cloudy
8:53 PM 68.0 °F - 66.0 °F 93% 29.85 in 10.0 mi SSW 6.9 mph - N/A   Partly Cloudy
9:53 PM 68.0 °F - 64.9 °F 90% 29.84 in 10.0 mi WSW 6.9 mph - N/A   Clear
10:53 PM 66.9 °F - 64.9 °F 93% 29.85 in 10.0 mi SW 6.9 mph - N/A   Clear
11:12 PM 66.2 °F - 66.2 °F 100% 29.86 in 10.0 mi SW 6.9 mph - N/A   Mostly Cloudy
11:49 PM 66.2 °F - 66.2 °F 100% 29.85 in 10.0 mi SW 10.4 mph - N/A   Mostly Cloudy
11:53 PM 66.9 °F - 66.0 °F 97% 29.84 in 10.0 mi SW 8.1 mph - N/A   Scattered Clouds